CW4114 Weather Reports


time (UTC)temp
F
wind
direction
speed
knots
gust
knots
rain 1hr
in
rain 24hr
in
rain mn
in
humidity
%
barometer
mb
20260506025326 38 345 1.7 4.3 0.00 0.00 0.00 80 1008.2
20260506024820 38 1 1.7 7.8 0.00 0.00 0.00 80 1008.3
20260506024318 38 336 3.5 7.8 0.00 0.00 0.00 80 1008.2
20260506024044 38 1 2.6 7.8 0.00 0.00 0.00 80 1008.2
20260506023321 38 354 2.6 6.1 0.00 0.00 0.00 81 1008.1
20260506022818 38 300 1.7 6.1 0.00 0.00 0.00 82 1008.1
20260506022319 38 317 3.5 6.1 0.00 0.00 0.00 82 1008.0
20260506021815 38 19 1.7 6.1 0.00 0.00 0.00 82 1008.0
20260506021315 38 19 1.7 7.8 0.00 0.00 0.00 82 1007.9
20260506020813 38 310 2.6 7.8 0.00 0.00 0.00 82 1007.7
20260506020543 39 343 3.5 7.8 0.00 0.00 0.00 82 1007.7
20260506020040 39 354 2.6 8.7 0.00 0.00 0.00 82 1007.6
20260506015314 39 7 1.7 8.7 0.00 0.00 0.00 82 1007.6
20260506014811 39 334 3.5 8.7 0.00 0.01 0.00 82 1007.5
20260506014311 39 357 3.5 8.7 0.00 0.01 0.00 81 1007.4
20260506013810 39 333 3.5 8.7 0.00 0.01 0.00 82 1007.3
20260506013537 39 337 1.7 8.7 0.00 0.01 0.00 82 1007.2
20260506012810 39 343 2.6 9.6 0.00 0.01 0.00 82 1007.1
20260506012536 39 320 3.5 9.6 0.00 0.01 0.00 82 1007.2
20260506011808 39 323 3.5 8.7 0.00 0.01 0.00 82 1007.2
20260506011307 39 324 4.3 8.7 0.00 0.02 0.00 82 1007.1
20260506010808 39 354 4.3 8.7 0.00 0.02 0.00 82 1007.0
20260506010308 39 300 3.5 8.7 0.00 0.02 0.00 82 1006.9
20260506005808 39 345 3.5 9.6 0.00 0.02 0.00 82 1006.7
20260506005532 39 340 5.2 9.6 0.00 0.03 0.00 82 1006.7
20260506005035 39 326 3.5 8.7 0.00 0.03 0.00 82 1006.6
20260506004307 39 336 3.5 7.8 0.00 0.04 0.00 82 1006.6
20260506003807 39 290 2.6 6.1 0.00 0.05 0.00 82 1006.6
20260506003302 39 30 3.5 8.7 0.00 0.05 0.00 82 1006.5
20260506002801 40 2 2.6 8.7 0.00 0.06 0.00 82 1006.5
20260506002259 40 330 3.5 7.8 0.00 0.06 0.00 81 1006.5
20260506001756 40 353 3.5 9.6 0.00 0.07 0.00 81 1006.5
20260506001259 40 341 4.3 9.6 0.00 0.07 0.00 81 1006.5
20260506000754 40 344 3.5 7.8 0.00 0.08 0.00 81 1006.4
20260506000257 40 340 3.5 5.2 0.00 0.09 0.00 81 1006.3
20260505235750 40 327 2.6 6.1 0.00 0.11 0.00 81 1006.2
20260505235250 41 348 2.6 7.8 0.00 0.13 0.00 81 1006.2
20260505234751 41 14 4.3 7.8 0.00 0.16 0.00 80 1006.2
20260505234518 41 48 3.5 6.1 0.00 0.16 0.00 80 1006.1
20260505233750 41 347 2.6 7.8 0.00 0.16 0.00 80 1006.2
20260505233249 42 300 2.6 7.8 0.00 0.16 0.00 79 1006.0
20260505232750 42 319 2.6 7.8 0.00 0.16 0.00 79 1006.0
20260505232516 42 334 2.6 6.1 0.00 0.16 0.00 79 1005.9
20260505231749 42 7 1.7 6.1 0.00 0.16 0.00 79 1006.0
20260505231249 42 358 1.7 7.8 0.00 0.17 0.00 78 1005.9
20260505230749 42 25 2.6 7.8 0.00 0.17 0.00 77 1005.9
20260505230249 43 25 3.5 7.8 0.00 0.17 0.00 74 1005.8
20260505225748 44 25 1.7 6.1 0.00 0.17 0.00 73 1005.7
20260505225248 44 17 1.7 13.0 0.00 0.17 0.00 71 1005.8
20260505224748 45 333 4.3 13.0 0.00 0.17 0.00 68 1005.6
20260505224248 46 2 3.5 9.6 0.00 0.17 0.00 66 1005.6
20260505223748 46 25 5.2 9.6 0.00 0.17 0.00 64 1005.4
20260505223248 47 329 3.5 8.7 0.00 0.17 0.00 62 1005.5
20260505222748 48 329 3.5 8.7 0.00 0.17 0.00 59 1005.5
20260505222516 50 351 3.5 13.0 0.00 0.17 0.00 53 1005.3
20260505221748 53 337 4.3 16.5 0.00 0.17 0.00 42 1005.3
20260505221247 54 282 8.7 16.5 0.00 0.17 0.00 35 1005.1
20260505220747 54 293 5.2 11.3 0.00 0.17 0.00 36 1005.1
20260505220248 54 322 7.0 16.5 0.00 0.17 0.00 36 1005.0
20260505215746 54 295 8.7 16.5 0.00 0.17 0.00 35 1005.0
20260505215247 54 290 7.0 15.6 0.00 0.17 0.00 36 1005.0
20260505215019 54 276 4.3 15.6 0.00 0.17 0.00 36 1004.9
20260505214246 53 264 7.0 15.6 0.00 0.17 0.00 36 1004.8
20260505213746 53 316 6.1 15.6 0.00 0.17 0.00 38 1004.9
20260505213247 53 314 7.8 18.2 0.00 0.17 0.00 37 1004.9
20260505212748 53 17 5.2 19.1 0.00 0.17 0.00 36 1004.9
20260505212247 53 2 6.1 19.1 0.00 0.17 0.00 35 1004.9
20260505211745 53 283 5.2 17.4 0.00 0.17 0.00 35 1004.9
20260505211245 53 309 8.7 17.4 0.00 0.17 0.00 37 1004.9
20260505211017 53 305 7.0 15.6 0.00 0.17 0.00 37 1004.9
20260505210509 53 296 9.6 17.4 0.00 0.17 0.00 36 1004.8
20260505210012 53 292 7.8 17.4 0.00 0.17 0.00 37 1004.9
20260505205245 53 254 7.0 14.8 0.00 0.17 0.00 37 1004.7
20260505204745 53 358 7.8 14.8 0.00 0.17 0.00 37 1004.7
20260505204245 53 274 4.3 18.2 0.00 0.17 0.00 37 1004.7
20260505203744 53 348 8.7 18.2 0.00 0.17 0.00 36 1004.5
20260505203516 53 323 7.0 14.8 0.00 0.17 0.00 36 1004.5
20260505202745 54 336 7.0 14.8 0.00 0.17 0.00 35 1004.4
20260505202244 54 283 7.0 19.1 0.00 0.17 0.00 38 1004.4
20260505201745 53 267 10.4 19.1 0.00 0.17 0.00 38 1004.3
20260505201512 53 340 8.7 17.4 0.00 0.17 0.00 36 1004.4
20260505200744 53 282 7.8 17.4 0.00 0.17 0.00 39 1004.3
20260505200244 53 300 7.0 13.9 0.00 0.17 0.00 38 1004.2
20260505195743 54 334 7.0 13.9 0.00 0.17 0.00 38 1004.1
20260505195243 55 350 7.0 14.8 0.00 0.17 0.00 39 1004.4
20260505194743 54 282 7.8 15.6 0.00 0.17 0.00 40 1004.3
20260505194243 54 350 8.7 15.6 0.00 0.17 0.00 37 1004.2
20260505193745 54 330 7.0 15.6 0.00 0.17 0.00 40 1004.1
20260505193240 54 286 6.1 16.5 0.00 0.17 0.00 39 1004.1
20260505192740 55 320 8.7 16.5 0.00 0.17 0.00 38 1004.1
20260505192240 55 276 7.8 16.5 0.00 0.17 0.00 42 1004.1
20260505191738 54 286 7.8 17.4 0.00 0.17 0.00 42 1004.1
20260505191510 55 323 8.7 17.4 0.00 0.17 0.00 43 1003.9
20260505190738 54 288 3.5 16.5 0.00 0.17 0.00 46 1003.8
20260505190239 53 290 7.0 16.5 0.00 0.17 0.00 47 1003.9
20260505185723 53 279 7.8 20.9 0.00 0.17 0.00 46 1003.9
20260505185223 53 275 11.3 20.9 0.00 0.17 0.00 47 1003.8
20260505184722 54 298 7.8 15.6 0.00 0.17 0.00 47 1003.8
20260505184216 53 275 5.2 13.0 0.00 0.17 0.00 52 1003.7
20260505183717 49 307 3.5 13.0 0.00 0.17 0.00 62 1003.4
20260505183217 47 0 3.5 8.7 0.00 0.17 0.00 65 1003.5
20260505182716 46 19 3.5 7.8 0.00 0.17 0.00 69 1003.4
20260505182218 45 351 1.7 7.8 0.00 0.17 0.00 67 1003.8
20260505181714 46 25 3.5 9.6 0.00 0.17 0.00 68 1003.5
20260505181214 46 358 2.6 9.6 0.00 0.17 0.00 68 1003.8
20260505180715 46 24 2.6 17.4 0.00 0.17 0.00 68 1003.7
20260505180219 45 21 6.1 17.4 0.00 0.17 0.00 69 1003.4
20260505175748 45 14 5.2 12.2 0.00 0.17 0.00 69 1003.5
20260505175020 45 341 5.2 12.2 0.00 0.17 0.00 71 1003.7
20260505174746 45 14 2.6 9.6 0.00 0.17 0.00 71 1003.4
20260505174019 45 351 4.3 8.7 0.00 0.17 0.00 72 1003.5
20260505173519 44 0 2.6 8.7 0.00 0.17 0.00 71 1003.7
20260505173016 45 340 2.6 8.7 0.00 0.17 0.00 73 1003.7
20260505172518 45 333 3.5 9.6 0.00 0.17 0.00 71 1003.7
20260505172015 45 355 3.5 9.6 0.00 0.17 0.00 74 1003.5
20260505171513 44 288 3.5 8.7 0.00 0.17 0.00 72 1003.8
20260505171012 44 42 3.5 8.7 0.00 0.17 0.00 71 1003.7
20260505170513 44 358 3.5 8.7 0.00 0.17 0.00 72 1003.7
20260505170015 44 357 4.3 9.6 0.00 0.17 0.00 73 1003.5
20260505165511 43 69 3.5 10.4 0.00 0.17 0.00 72 1003.7
20260505165009 44 334 4.3 10.4 0.00 0.17 0.00 72 1003.7
20260505164511 44 314 3.5 13.0 0.00 0.17 0.00 72 1003.8
20260505164010 44 355 3.5 13.0 0.00 0.17 0.00 71 1003.5
20260505163507 44 250 5.2 10.4 0.00 0.17 0.00 70 1003.4
20260505163009 45 329 5.2 11.3 0.00 0.17 0.00 68 1003.4
20260505162505 46 327 6.1 11.3 0.00 0.17 0.00 63 1003.5
20260505162247 48 302 3.5 13.0 0.00 0.17 0.00 60 1003.4
20260505161505 49 357 5.2 13.0 0.00 0.17 0.00 55 1003.2
20260505161006 49 347 7.0 13.0 0.00 0.17 0.00 58 1003.3
20260505160732 48 343 4.3 13.0 0.00 0.17 0.00 56 1003.5
20260505153002 47 257 5.2 14.8 0.00 0.17 0.00 58 1003.3
20260505152502 47 286 7.0 14.8 0.00 0.17 0.00 58 1003.3
20260505152004 47 290 6.1 13.0 0.00 0.17 0.00 65 1003.4
20260505151502 47 265 7.0 13.9 0.00 0.17 0.00 66 1003.4
20260505151003 47 330 4.3 13.9 0.00 0.17 0.00 67 1003.2
20260505150502 47 344 6.1 12.2 0.00 0.17 0.00 68 1003.2
20260505150223 46 285 7.0 12.2 0.00 0.17 0.00 70 1003.2
20260505140610 43 27 1.7 7.8 0.00 0.17 0.00 79 1002.2
20260505124943 44 300 5.2 10.4 0.00 0.17 0.00 70 1001.3
20260505124444 44 327 5.2 10.4 0.00 0.17 0.00 70 1001.3
20260505123943 44 302 2.6 8.7 0.00 0.17 0.00 72 1001.5
20260505123443 44 7 4.3 8.7 0.00 0.17 0.00 73 1001.3
20260505122943 44 306 2.6 8.7 0.00 0.17 0.00 73 1001.4
20260505122439 43 324 2.6 6.1 0.00 0.17 0.00 75 1001.3
20260505122215 43 296 3.5 7.8 0.00 0.17 0.00 75 1001.2
20260505121433 42 293 0.9 7.8 0.00 0.17 0.00 75 1001.2
20260505120935 42 313 4.3 7.8 0.00 0.17 0.00 76 1001.1
20260505120436 42 257 3.5 6.1 0.00 0.17 0.00 76 1001.1
20260505115936 42 275 2.6 8.7 0.00 0.17 0.00 76 1001.2
20260505115433 42 344 1.7 8.7 0.00 0.17 0.00 76 1001.1
20260505114946 42 14 2.6 7.8 0.00 0.17 0.00 76 1000.9
20260505113932 42 298 4.3 7.8 0.00 0.17 0.00 77 1000.9
20260505113432 41 327 3.5 7.8 0.00 0.17 0.00 78 1000.8
20260505112932 41 314 4.3 8.7 0.00 0.17 0.00 79 1000.8
20260505112433 41 316 3.5 8.7 0.00 0.17 0.00 80 1000.8
20260505111937 41 303 3.5 7.8 0.00 0.17 0.00 80 1000.7
20260505111432 41 286 4.3 6.1 0.00 0.17 0.00 81 1000.5
20260505111202 40 278 3.5 6.1 0.00 0.17 0.00 82 1000.4
20260505110432 40 281 3.5 5.2 0.00 0.17 0.00 82 1000.3
20260505101933 40 272 3.5 6.1 0.00 0.17 0.00 82 999.5
20260505101433 40 285 4.3 6.1 0.00 0.17 0.00 81 999.5
20260505100933 40 258 3.5 6.1 0.00 0.17 0.00 81 999.5
20260505100433 41 288 3.5 6.1 0.00 0.17 0.00 81 999.4
20260505095933 41 309 2.6 6.1 0.00 0.17 0.00 80 999.3
20260505095706 41 293 3.5 6.1 0.00 0.17 0.00 80 999.3
20260505094933 41 316 3.5 4.3 0.00 0.17 0.00 79 999.1
20260505094432 41 290 3.5 4.3 0.00 0.17 0.00 79 999.2
20260505093932 41 337 2.6 5.2 0.00 0.17 0.00 79 999.1
20260505093710 42 303 2.6 6.1 0.00 0.17 0.00 78 999.1
20260505092933 42 341 2.6 6.1 0.00 0.17 0.00 79 999.1
20260505092433 42 285 2.6 8.7 0.00 0.17 0.00 78 998.9
20260505091933 42 234 2.6 8.7 0.00 0.17 0.00 78 999.0
20260505091432 42 298 1.7 8.7 0.00 0.17 0.00 78 998.8
20260505090933 42 305 3.5 13.0 0.00 0.17 0.00 77 998.7
20260505090700 42 314 3.5 13.0 0.00 0.17 0.00 77 998.7
20260505085933 43 286 4.3 9.6 0.00 0.17 0.00 77 998.6
20260505085433 43 326 4.3 7.8 0.00 0.17 0.00 76 998.6
20260505084933 43 271 3.5 10.4 0.00 0.17 0.00 76 998.6
20260505084433 43 300 4.3 10.4 0.00 0.17 0.00 77 998.5
20260505084200 43 279 2.6 6.1 0.00 0.17 0.00 77 998.5
20260505083432 43 285 4.3 7.8 0.00 0.17 0.00 76 998.5
20260505082933 44 271 1.7 8.7 0.00 0.17 0.00 76 998.5
20260505082432 44 306 2.6 9.6 0.00 0.17 0.00 77 998.6
20260505081932 44 309 4.3 9.6 0.00 0.17 0.00 78 998.5
20260505081433 44 295 4.3 7.8 0.00 0.17 0.00 78 998.4
20260505080933 44 279 2.6 6.1 0.00 0.17 0.00 77 998.4
20260505080430 44 298 2.6 6.1 0.00 0.18 0.00 77 998.4
20260505075933 45 299 3.5 7.8 0.00 0.18 0.00 76 998.3
20260505075425 45 331 3.5 9.6 0.00 0.18 0.00 76 998.2
20260505075148 45 295 3.5 13.0 0.00 0.18 0.00 76 998.2
20260505074422 45 290 3.5 13.0 0.00 0.18 0.00 77 998.2
20260505073921 45 306 2.6 6.1 0.00 0.18 0.00 78 998.2
20260505073422 45 268 3.5 6.1 0.00 0.18 0.00 78 998.1
20260505072922 45 326 3.5 6.1 0.00 0.18 0.00 78 998.1
20260505072424 45 269 3.5 6.1 0.00 0.18 0.00 78 998.1
20260505071921 45 290 1.7 6.1 0.00 0.18 0.00 78 998.2
20260505071421 45 292 2.6 7.8 0.00 0.18 0.00 78 998.1
20260505070923 45 314 3.5 7.8 0.00 0.18 0.00 78 998.1
20260505070421 45 324 3.5 7.8 0.00 0.18 0.00 78 997.9
20260505065921 45 326 2.6 7.8 0.00 0.18 0.00 79 998.1
20260505065421 45 300 3.5 7.8 0.00 0.18 0.00 82 998.1
20260505064919 45 265 2.6 7.8 0.00 0.18 0.00 82 997.9
20260505064421 45 307 2.6 6.1 0.00 0.18 0.00 83 998.1
20260505063918 45 302 3.5 6.1 0.00 0.18 0.00 83 998.1
20260505063418 45 310 2.6 5.2 0.00 0.18 0.00 83 998.1
20260505063147 45 257 1.7 4.3 0.00 0.18 0.00 83 997.9
20260505062418 45 305 2.6 4.3 0.00 0.18 0.00 83 998.1
20260505061919 45 276 2.6 5.2 0.00 0.18 0.00 82 998.1
20260505061418 46 292 1.7 5.2 0.00 0.18 0.00 82 998.1
20260505061145 46 279 1.7 4.3 0.00 0.18 0.00 82 997.9
20260505060418 46 274 2.6 4.3 0.00 0.18 0.00 82 998.1
20260505055917 46 306 1.7 5.2 0.00 0.18 0.00 82 997.9
20260505055417 46 279 1.7 5.2 0.00 0.18 0.00 82 998.1
20260505054917 46 276 1.7 6.1 0.00 0.18 0.00 83 998.1
20260505054419 45 282 1.7 6.1 0.00 0.18 0.00 84 997.7
20260505053918 45 330 2.6 6.1 0.00 0.18 0.00 86 997.6
20260505053416 45 276 1.7 6.1 0.00 0.18 0.00 87 997.7
20260505052917 45 293 2.6 5.2 0.00 0.18 0.00 88 997.6
20260505052417 45 290 1.7 5.2 0.00 0.18 0.00 88 997.6
20260505051916 45 257 2.6 5.2 0.00 0.18 0.00 89 997.6
20260505051416 45 341 1.7 4.3 0.00 0.18 0.00 89 997.5
20260505050916 45 295 0.9 4.3 0.00 0.18 0.00 89 997.4
20260505050642 45 298 1.7 3.5 0.00 0.18 0.00 89 997.4
20260505041644 45 296 1.7 6.1 0.00 0.18 0.00 91 996.6
20260505041146 45 307 1.7 6.1 0.00 0.18 0.00 91 996.5
20260505040414 45 286 1.7 5.2 0.00 0.18 0.00 91 996.4
20260505035915 45 319 3.5 5.2 0.00 0.18 0.18 91 996.2
20260505035642 45 358 2.6 4.3 0.00 0.18 0.18 91 996.0
20260505034915 45 0 2.6 4.3 0.00 0.18 0.18 91 995.9
20260505034416 45 326 1.7 4.3 0.00 0.18 0.18 91 995.9
20260505033914 45 358 1.7 4.3 0.00 0.18 0.18 91 995.9
20260505033416 45 300 0.9 4.3 0.00 0.18 0.18 91 995.9
20260505032913 45 343 1.7 3.5 0.00 0.18 0.18 91 995.9
20260505032640 45 348 1.7 3.5 0.00 0.18 0.18 91 995.9
20260505031913 45 331 0.9 3.5 0.00 0.18 0.18 91 996.0
20260505031412 45 353 1.7 3.5 0.00 0.18 0.18 92 996.0
20260505030913 45 11 0.9 2.6 0.00 0.18 0.18 92 996.0
20260505030412 45 2 0.9 2.6 0.00 0.18 0.18 92 996.2
20260505025912 45 350 0.9 3.5 0.00 0.18 0.18 92 996.2